Weather History for Ephrata, WA

Change the Weather History Date:

Monday, February 4, 2013

  Actual Average Record
Temperature  
Mean Temperature 33 °F 32 °F  
Max Temperature 35 °F 39 °F 60 °F (1967)
Min Temperature 30 °F 24 °F -19 °F (1985)
Degree Days  
Heating Degree Days 32 33  
Month to date heating degree days 133 133  
Since 1 July heating degree days 3569 3841  
Cooling Degree Days 0 0  
Month to date cooling degree days 0 0  
Year to date cooling degree days 0 0  
Moisture  
Dew Point 30 °F    
Average Humidity 91    
Maximum Humidity 100    
Minimum Humidity 82    
Precipitation  
Precipitation 0.00 in 0.03 in 0.15 in (1950)
Month to date precipitation 0.00 0.10  
Year to date precipitation 0.19 1.01  
Sea Level Pressure  
Sea Level Pressure 30.10 in    
Wind  
Wind Speed 3 mph (NNE)    
Max Wind Speed 12 mph    
Max Gust Speed 24 mph    
Visibility 5 miles    
Events Fog    
T = Trace of Precipitation, MM = Missing Value Source: NWS Daily Summary

Daily Weather History Graph

Daily Weather History Graph

Search for Another Location

Airport:

Trip Planner

Search our weather history database for the weather conditions in past years. The results will help you decide how hot, cold, wet, or windy it might be!

Date:

Astronomy

Feb. 04, 2013 Rise Set
Actual Time 7:19 AM PST 5:05 PM PST
Civil Twilight 6:46 AM PST 5:37 PM PST
Nautical Twilight 6:10 AM PST 6:14 PM PST
Astronomical Twilight 5:34 AM PST 6:50 PM PST
Moon 2:06 AM PST (2/4) 11:26 AM PST (2/4)
Length of Visible Light 10h 50m
Length of Day
9h 46m
Last Quarter, 36% of the Moon is Illuminated
Feb 4
Last Quarter
Feb 9
New
Feb 17
First Quarter
Feb 25
Full
Mar 4
Last Quarter

Hourly Weather History & Observations

Time (PST) Temp. Windchill Dew Point Humidity Pressure Visibility Wind Dir Wind Speed Gust Speed Precip Events Conditions
12:53 AM 32.0 °F - 30.0 °F 92% 30.16 in 6.0 mi Calm Calm - N/A   Overcast
3:53 AM 32.0 °F - 30.0 °F 92% 30.16 in 5.0 mi Calm Calm - N/A   Overcast
4:53 AM 30.9 °F - 30.0 °F 96% 30.15 in 5.0 mi Calm Calm - N/A   Overcast
5:53 AM 30.9 °F 26.2 °F 30.0 °F 96% 30.14 in 4.0 mi SSW 4.6 mph - N/A   Overcast
6:21 AM 30.2 °F - 30.2 °F 100% 30.10 in 2.5 mi Calm Calm - N/A   Overcast
6:30 AM 30.2 °F 25.4 °F 28.4 °F 93% 30.09 in 0.8 mi SE 4.6 mph - N/A   Overcast
6:51 AM 30.2 °F - 28.4 °F 93% 30.09 in 0.2 mi Calm Calm - N/A Fog Light Freezing Fog
6:53 AM 30.0 °F 26.5 °F 30.0 °F 100% 30.13 in 0.2 mi SE 3.5 mph - N/A Fog Light Freezing Fog
7:00 AM 30.2 °F - 28.4 °F 93% 30.09 in 0.5 mi Calm Calm - N/A Fog Light Freezing Fog
7:12 AM 30.2 °F - 30.2 °F 100% 30.11 in 0.2 mi Calm Calm - N/A Fog Light Freezing Fog
7:53 AM 30.9 °F - 30.0 °F 96% 30.16 in 0.2 mi Calm Calm - N/A Fog Light Freezing Fog
8:53 AM 30.9 °F - 28.9 °F 92% 30.16 in 0.2 mi Calm Calm - N/A Fog Light Freezing Fog
9:53 AM 30.9 °F - 30.0 °F 96% 30.17 in 0.2 mi Calm Calm - N/A Fog Light Freezing Fog
10:44 AM 30.2 °F 26.7 °F 30.2 °F 100% 30.13 in 0.5 mi ENE 3.5 mph - N/A Fog Light Freezing Fog
10:53 AM 30.9 °F - 30.0 °F 96% 30.17 in 0.5 mi Calm Calm - N/A Fog Light Freezing Fog
11:29 AM 30.2 °F 26.7 °F 30.2 °F 100% 30.12 in 1.5 mi NE 3.5 mph - N/A   Overcast
11:37 AM 30.2 °F - 30.2 °F 100% 30.12 in 2.5 mi Calm Calm - N/A   Overcast
11:44 AM 30.2 °F - 30.2 °F 100% 30.11 in 3.0 mi Calm Calm - N/A   Overcast
11:53 AM 30.9 °F 27.5 °F 30.0 °F 96% 30.15 in 4.0 mi NE 3.5 mph - N/A   Overcast
12:53 PM 32.0 °F - 30.9 °F 96% 30.13 in 6.0 mi Calm Calm - N/A   Overcast
1:49 PM 33.8 °F - 30.2 °F 87% 30.07 in 9.0 mi Calm Calm - N/A   Overcast
1:53 PM 34.0 °F - 30.9 °F 89% 30.11 in 10.0 mi Calm Calm - N/A   Overcast
2:53 PM 35.1 °F 31.0 °F 30.9 °F 85% 30.09 in 10.0 mi NE 4.6 mph - N/A   Overcast
4:53 PM 33.1 °F 27.7 °F 30.0 °F 89% 30.07 in 9.0 mi North 5.8 mph - N/A   Overcast
5:17 PM 33.8 °F 27.7 °F 30.2 °F 87% 30.01 in 9.0 mi North 6.9 mph - N/A   Overcast
5:53 PM 32.0 °F 26.4 °F 30.0 °F 92% 30.06 in 9.0 mi North 5.8 mph - N/A   Overcast
6:53 PM 32.0 °F 26.4 °F 30.0 °F 92% 30.07 in 8.0 mi North 5.8 mph - N/A   Overcast
7:53 PM 32.0 °F 25.6 °F 30.0 °F 92% 30.05 in 6.0 mi North 6.9 mph - N/A   Overcast
8:53 PM 32.0 °F 24.8 °F 30.9 °F 96% 30.02 in 6.0 mi NNE 8.1 mph - N/A   Overcast
9:36 PM 32.0 °F 23.6 °F 30.2 °F 93% 29.97 in 6.0 mi North 10.4 mph - N/A   Overcast
9:53 PM 33.1 °F 26.1 °F 30.9 °F 92% 30.01 in 9.0 mi North 8.1 mph - N/A   Overcast
10:53 PM 33.1 °F 26.1 °F 30.9 °F 92% 29.99 in 8.0 mi North 8.1 mph - N/A   Overcast
11:53 PM 34.0 °F - 32.0 °F 92% 29.99 in 9.0 mi Calm Calm - N/A   Overcast